Location: *
(50.3194°N, 7.1067°E)
Time: 18:41:42
(UTC+00:00)

USA 234 - Pass Details

Date: 22 September 2019
Orbit: 1103 x 1105 km, 123.0° (Epoch: 17 October)

Event Time Altitude Azimuth Distance (km) Brightness Sun altitude
Exits shadow 19:02:36 - 63° (ENE) 3,213 5.3 -15.2°
Reaches altitude 10° 19:03:15 10° 62° (ENE) 2,967 5.1 -15.3°
Maximum altitude 19:09:37 57° 346° (NNW) 1,284 3.8 -16.3°
Drops below altitude 10° 19:15:59 10° 270° (W) 2,964 6.6 -17.2°
Sets 19:18:30 0° 266° (W) 3,921 7.3 -17.6°
